Simultaneous Nadir Overpasses (SNOs) Predictions

Prediction of SNOs between AURA and NPP Satellite Orbit:

Table of predicted SNOs for the next 14.0 days since TLE Epoch: 2/21/2015
Index Date (AURA) Time (AURA) Lat,Lon (AURA) SZA (AURA ) Date (NPP) Time (NPP) Lat,Lon (NPP) SZA (NPP ) Distance(km) Time Diff (sec)
1 02/23/2015 07:19:02 -77.92, 138.68 75.19 02/23/2015 07:17:51 -77.91, 138.56 75.11 3.00 71
2 02/23/2015 08:08:13 78.56, -50.55 103.99 02/23/2015 08:08:19 78.55, -50.61 103.99 1.43 6
3 02/25/2015 23:35:31 -78.24,-103.95 76.59 02/25/2015 23:34:36 -78.24,-103.92 76.55 0.66 55
4 02/26/2015 00:24:44 78.78, 66.52 102.70 02/26/2015 00:25:06 78.79, 66.61 102.66 2.12 22
5 02/28/2015 15:52:10 -78.33, 12.32 77.71 02/28/2015 15:51:27 -78.33, 12.33 77.68 0.35 43
6 02/28/2015 16:41:23 78.86,-177.17 101.57 02/28/2015 16:41:57 78.87,-177.10 101.53 1.55 34
7 03/03/2015 08:08:52 -78.48, 128.92 78.94 03/03/2015 08:08:16 -78.49, 129.01 78.93 2.13 36
8 03/03/2015 08:58:06 78.97, -60.73 100.40 03/03/2015 08:58:47 78.98, -60.59 100.34 3.07 41
9 03/06/2015 00:25:42 -78.45,-115.44 79.94 03/06/2015 00:25:09 -78.45,-115.44 79.91 0.14 33




NCC Satellite Simultaneous Nadir Overpasses (SNOs) Prediction Service
